sat.trackr.live / text

‹ back to catalog

STARLINK-34423

NORAD 64460 · 2025-130Y

PAYLOAD ACTIVE UNKNOWN

§ Identity

Operator
Country
US
Launch date
2025-06-18
Launch site
AFETR
Launch vehicle
Mass (kg)
RCS (m²)

Purposes: comms

External: N2YO · Heavens-Above · Gunter

§ Orbital elements

Epoch: 2026-05-25T03:36:52.975296Z

Period
94.11 min
Inclination
53.1565°
Eccentricity
0.0001036
Mean motion
15.30201375 rev/d
Perigee alt
474.5 km
Apogee alt
475.9 km
Semi-major
6,853.3 km
B*
3.2498e-4
RAAN
93.0855°
Arg perigee
79.3956°
Mean anomaly
280.7161°
Rev number
5,241

§ Raw data

STARLINK-344231 64460U 25130Y   26145.15061314  .00009278  00000+0  32498-3 0  99942 64460  53.1565  93.0855 0001036  79.3956 280.7161 15.30201375 52410

JSON: /api/v1/satellites/64460 · /tle

For live sub-satellite position, see the globe view (requires WebGL).

§ Visibility from observer

Set your observer location to see the next 7 days of passes ≥ 10°. The values pass through the URL so the page stays shareable.

No JS? Fill the form by hand. The geolocation button needs JavaScript.